This demonstration page uses our WeatherBlox Daily Observations layout. Learn more.

Hourly Observations for August 3, 2019

Temp ( °F °C ) Dew Point ( °F °C ) Humidity (%) Winds ( mph kmh ) Pressure ( in mb ) Visibility ( mi km ) Precip ( " mm )
12:15 am 00:15 Clear 77 25 72 22 83 83 S 6 9 30.09 1019 10 16.09344 0 0
12:35 am 00:35 Partly Cloudy 73 23 72 22 94 94 Calm 30.09 1019 10 16.09344 0 0
12:55 am 00:55 Clear 72 22 72 22 100 100 SW 3 6 30.09 1019 10 16.09344 0 0
1:15 am 01:15 Clear 73 23 72 22 94 94 SSE 3 6 30.09 1019 10 16.09344 0 0
1:35 am 01:35 Clear 72 22 70 21 94 94 S 5 7 30.09 1019 10 16.09344 0 0
1:55 am 01:55 Clear 73 23 70 21 89 89 SSW 3 6 30.09 1019 10 16.09344 0 0
2:15 am 02:15 Clear 72 22 72 22 100 100 Calm 30.09 1019 10 16.09344 0 0
2:35 am 02:35 Partly Cloudy 72 22 70 21 94 94 Calm 30.09 1019 10 16.09344 0 0
2:55 am 02:55 Cloudy 72 22 70 21 94 94 Calm 30.09 1019 10 16.09344 0 0
3:15 am 03:15 Cloudy 72 22 70 21 94 94 Calm 30.09 1019 10 16.09344 0 0
3:35 am 03:35 Mostly Cloudy 72 22 70 21 94 94 Calm 30.06 1018 10 16.09344 0 0
3:55 am 03:55 Mostly Cloudy 70 21 70 21 100 100 Calm 30.06 1018 10 16.09344 0 0
4:15 am 04:15 Cloudy 70 21 70 21 100 100 Calm 30.06 1018 10 16.09344 0 0
4:35 am 04:35 Mostly Cloudy 72 22 70 21 94 94 Calm 30.06 1018 10 16.09344 0 0
4:55 am 04:55 Partly Cloudy 72 22 70 21 94 94 Calm 30.06 1018 10 16.09344 0 0
5:15 am 05:15 Mostly Cloudy 72 22 72 22 100 100 Calm 30.06 1018 10 16.09344 0 0
5:35 am 05:35 Cloudy 68 20 68 20 100 100 S 3 6 30.06 1018 10 16.09344 0 0
5:55 am 05:55 Cloudy 68 20 68 20 100 100 Calm 30.06 1018 10 16.09344 0 0
6:15 am 06:15 Cloudy 70 21 70 21 100 100 Calm 30.06 1018 10 16.09344 0 0
6:35 am 06:35 Cloudy 70 21 70 21 100 100 Calm 30.06 1018 5 8.04672 0 0
6:55 am 06:55 Cloudy 70 21 70 21 100 100 SSE 3 6 30.06 1018 4 6.437376 0 0
7:15 am 07:15 Cloudy 70 21 70 21 100 100 Calm 30.06 1018 5 8.04672 0 0
7:35 am 07:35 Cloudy 70 21 70 21 100 100 Calm 30.06 1018 4 6.437376 0 0
7:55 am 07:55 Cloudy 70 21 70 21 100 100 Calm 30.06 1018 3 4.828032 0 0
8:15 am 08:15 Cloudy 70 21 70 21 100 100 Calm 30.06 1018 4 6.437376 0 0
8:35 am 08:35 Cloudy 70 21 70 21 100 100 Calm 30.09 1019 4 6.437376 0 0
8:55 am 08:55 Cloudy 70 21 70 21 100 100 Calm 30.09 1019 5 8.04672 0 0
9:15 am 09:15 Cloudy 72 22 70 21 94 94 Calm 30.09 1019 7 11.265408 0 0
9:35 am 09:35 Mostly Cloudy 73 23 70 21 89 89 Calm 30.09 1019 10 16.09344 0 0
9:55 am 09:55 Partly Cloudy 75 24 72 22 89 89 Calm 30.06 1018 10 16.09344 0 0
10:35 am 10:35 Partly Cloudy 79 26 72 22 79 79 Calm 30.06 1018 10 16.09344 0 0
10:55 am 10:55 Partly Cloudy 81 27 72 22 74 74 Calm 30.06 1018 10 16.09344 0 0
11:15 am 11:15 Partly Cloudy 81 27 72 22 74 74 WSW 3 6 30.06 1018 10 16.09344 0 0
11:35 am 11:35 Partly Cloudy 82 28 72 22 70 70 SE 3 6 30.06 1018 10 16.09344 0 0
11:55 am 11:55 Partly Cloudy 84 29 70 21 62 62 W 5 7 30.06 1018 10 16.09344 0 0
12:15 pm 12:15 Sunny 84 29 70 21 62 62 S 3 6 30.03 1017 10 16.09344 0 0
12:35 pm 12:35 Sunny 86 30 70 21 59 59 Calm 30.03 1017 10 16.09344 0 0
12:55 pm 12:55 Sunny 86 30 68 20 55 55 Calm 30.03 1017 10 16.09344 0 0
1:15 pm 13:15 Partly Cloudy 88 31 70 21 55 55 SSW 5 7 30 1016 10 16.09344 0 0
1:35 pm 13:35 Mostly Cloudy 88 31 70 21 55 55 SSW 3 6 29.97 1015 10 16.09344 0 0
1:55 pm 13:55 Partly Cloudy 88 31 70 21 55 55 Calm 29.97 1015 10 16.09344 0 0
2:15 pm 14:15 Partly Cloudy 88 31 70 21 55 55 Calm 29.97 1015 10 16.09344 0 0
2:35 pm 14:35 Mostly Cloudy 88 31 70 21 55 55 Calm 29.97 1015 10 16.09344 0 0
2:55 pm 14:55 Partly Cloudy 88 31 68 20 52 52 SSE 6 9 29.94 1014 10 16.09344 0 0
3:15 pm 15:15 Partly Cloudy 88 31 68 20 52 52 Calm 29.94 1014 10 16.09344 0 0
3:35 pm 15:35 Mostly Cloudy 88 31 70 21 55 55 NE 3 6 29.94 1014 10 16.09344 0 0
3:55 pm 15:55 Mostly Cloudy 88 31 68 20 52 52 E 6 9 29.94 1014 10 16.09344 0 0
4:15 pm 16:15 Mostly Cloudy 88 31 68 20 52 52 Calm 29.91 1013 10 16.09344 0 0
4:35 pm 16:35 Mostly Cloudy 88 31 68 20 52 52 Calm 29.91 1013 10 16.09344 0 0
4:55 pm 16:55 Mostly Cloudy 88 31 70 21 55 55 S 9 15 29.91 1013 10 16.09344 0 0
5:15 pm 17:15 Partly Cloudy 88 31 70 21 55 55 S 9 15 29.91 1013 10 16.09344 0 0
5:35 pm 17:35 Partly Cloudy 90 32 70 21 52 52 SSW 6 9 29.91 1013 10 16.09344 0 0
5:55 pm 17:55 Partly Cloudy 90 32 70 21 52 52 SSW 5 7 29.91 1013 10 16.09344 0 0
6:15 pm 18:15 Sunny 90 32 70 21 52 52 SSW 5 7 29.91 1013 10 16.09344 0 0
6:35 pm 18:35 Sunny 90 32 68 20 49 49 Calm 29.91 1013 10 16.09344 0 0
6:55 pm 18:55 Sunny 90 32 70 21 52 52 Calm 29.91 1013 10 16.09344 0 0
7:15 pm 19:15 Sunny 88 31 70 21 55 55 Calm 29.91 1013 10 16.09344 0 0
7:35 pm 19:35 Sunny 88 31 70 21 55 55 SW 3 6 29.91 1013 10 16.09344 0 0
7:55 pm 19:55 Sunny 86 30 70 21 59 59 SW 3 6 29.91 1013 10 16.09344 0 0
8:15 pm 20:15 Sunny 86 30 72 22 62 62 S 5 7 29.91 1013 10 16.09344 0 0
8:35 pm 20:35 Clear 84 29 72 22 66 66 SSW 3 6 29.94 1014 10 16.09344 0 0
8:55 pm 20:55 Mostly Cloudy 82 28 72 22 70 70 Calm 29.94 1014 10 16.09344 0 0
9:15 pm 21:15 Cloudy 82 28 72 22 70 70 Calm 29.94 1014 10 16.09344 0 0
9:35 pm 21:35 Partly Cloudy 82 28 72 22 70 70 ENE 3 6 29.94 1014 10 16.09344 0 0
9:55 pm 21:55 Mostly Cloudy 81 27 72 22 74 74 ESE 5 7 29.97 1015 10 16.09344 0 0
10:15 pm 22:15 Cloudy 81 27 72 22 74 74 Calm 29.97 1015 10 16.09344 0 0
10:35 pm 22:35 Cloudy 81 27 72 22 74 74 Calm 29.97 1015 10 16.09344 0 0
10:55 pm 22:55 Cloudy 79 26 72 22 79 79 NNW 6 9 29.97 1015 10 16.09344 0 0
11:15 pm 23:15 Partly Cloudy 77 25 73 23 89 89 NE 9 15 29.97 1015 10 16.09344 0 0
11:35 pm 23:35 Mostly Cloudy 77 25 72 22 83 83 ENE 5 7 29.97 1015 10 16.09344 0 0
11:55 pm 23:55 Mostly Cloudy 77 25 72 22 83 83 ENE 7 11 29.97 1015 10 16.09344 0 0

Powered by AerisWeather